RH
32 35 33 26 19 20 20 10 4 3 3 5 3 2 2 1 2 2 3 4 5 5 5 5 5 4 4 4 3 3 4 4 4 5 5 5 5 5 5 5 5 5 5 5 5 5 5 4 4 4 5 5 6 6 6 6 6 7 8 9 9 8 8 8 9 9 9 9 9 8 8 8 7 7 7 6 6 6 6 7 7 8 9 10 10 10 11 12
35 40 40 33 22 21 21 13 7 4 3 5 3 1 2 2 3 4 4 5 5 5 5 5 5 4 4 4 3 4 4 4 5 5 5 5 5 5 5 5 5 5 5 5 5 5 5 5 5 5 5 6 6 6 7 7 6 7 7 7 8 7 8 9 9 9 9 10 10 9 9 8 8 7 7 7 7 7 8 8 8 9 9 10 10 11 12 13
38 41 38 33 30 24 18 16 11 5 4 4 4 2 2 3 3 5 5 5 5 5 5 4 4 4 4 5 4 5 4 5 6 5 5 5 6 5 5 5 5 5 5 5 5 5 5 5 6 6 6 6 7 7 7 7 7 7 7 7 8 8 9 9 10 10 10 11 10 10 9 9 8 8 7 7 8 8 9 9 10 10 10 11 12 12 13 14
39 40 35 33 39 28 16 25 17 4 5 3 3 3 2 3 2 5 6 6 5 4 4 4 4 4 4 5 4 5 5 6 6 5 6 6 6 5 6 6 5 6 5 6 5 6 6 6 6 6 6 7 7 7 7 8 8 8 8 8 8 8 9 10 11 11 11 11 11 10 11 10 9 9 8 8 9 9 10 10 10 11 11 13 14 14 15 16
39 36 32 33 39 24 19 38 24 2 4 2 2 3 2 4 3 5 6 5 5 4 4 4 5 6 6 7 7 7 7 6 6 6 6 6 6 5 6 6 6 6 6 6 6 6 6 6 7 6 7 7 7 8 8 8 8 8 9 9 9 9 9 11 12 12 12 13 12 12 14 13 9 9 10 9 9 10 11 11 11 12 13 14 15 16 17 18
40 34 27 27 29 20 28 44 21 1 4 1 2 2 2 5 5 6 6 5 5 4 5 6 7 7 7 8 8 9 8 6 6 6 6 6 6 6 6 6 6 6 6 6 6 7 7 7 7 7 8 8 8 8 8 9 9 9 9 9 10 10 10 11 13 14 14 14 15 15 16 15 11 10 11 10 10 10 12 12 13 14 15 16 16 17 18 19
39 37 24 18 21 21 33 36 11 1 4 1 2 2 3 6 6 7 7 7 6 5 5 5 6 6 6 7 6 7 6 6 7 7 6 6 6 6 7 7 7 6 7 7 7 7 7 7 7 8 8 9 9 9 9 9 9 10 10 11 11 11 11 11 13 14 15 15 16 16 16 16 12 11 12 11 11 11 13 14 14 15 16 17 18 18 19 20
38 40 23 13 17 15 17 15 4 3 3 1 3 3 5 7 6 6 6 6 6 5 5 4 5 5 6 6 6 7 6 6 7 6 6 7 6 7 7 7 7 6 7 7 7 7 7 8 8 8 9 10 10 9 10 10 10 11 11 12 11 12 12 13 14 14 16 17 17 16 15 15 13 12 12 12 12 12 14 15 16 16 17 18 19 19 20 21
43 38 19 10 14 8 5 5 3 4 1 2 3 4 7 7 6 6 5 5 5 4 4 5 5 5 6 6 7 7 7 7 6 7 6 7 6 6 7 7 7 7 7 8 8 8 8 8 8 9 10 11 11 10 11 11 11 12 12 13 13 13 14 14 15 15 16 17 16 15 14 13 13 13 13 13 13 13 15 16 17 17 18 19 19 21 21 22
42 28 13 10 9 5 5 5 4 3 2 2 2 4 7 6 6 5 4 5 4 4 5 5 5 5 6 6 7 7 7 7 7 7 6 7 7 7 8 7 7 7 8 8 8 8 8 8 9 10 11 12 12 12 12 12 13 13 14 15 15 15 16 16 16 16 16 17 16 14 13 13 15 14 13 14 14 14 16 17 19 19 19 20 20 21 22 23
29 16 10 9 6 5 5 4 4 3 2 2 2 4 6 6 6 5 5 4 4 5 5 5 6 6 6 6 7 7 7 7 7 7 7 7 7 7 8 8 8 8 8 8 9 9 8 9 9 10 12 13 13 13 13 14 14 15 15 17 17 17 17 17 16 17 16 16 15 14 13 14 15 14 13 15 15 15 16 18 20 20 20 20 21 22 23 24
21 14 9 6 6 7 6 4 4 2 2 3 3 4 6 7 6 5 5 5 5 5 5 6 6 6 6 7 8 7 7 7 7 7 7 7 8 8 8 8 8 8 8 9 9 9 9 9 10 11 13 14 15 14 14 15 16 17 18 20 20 18 18 18 17 16 15 16 15 14 15 15 15 14 14 15 16 15 17 19 21 21 21 21 21 22 24 26
24 18 8 4 7 8 6 5 3 2 4 4 5 5 7 7 6 6 6 5 5 5 6 7 7 7 7 8 8 7 7 7 7 8 8 8 8 8 8 8 9 9 9 9 9 10 10 10 11 12 14 15 16 16 16 17 18 18 20 22 22 21 20 19 19 17 17 17 16 16 17 15 15 15 15 16 16 16 18 20 22 23 23 23 23 24 25 27
18 11 5 4 7 7 6 4 2 4 6 6 7 6 7 7 7 6 5 5 5 6 7 6 7 8 8 8 7 7 8 8 8 8 8 9 9 9 9 9 9 9 10 10 10 10 11 11 11 13 15 15 17 18 18 18 19 20 21 22 23 23 22 20 20 19 19 18 16 18 18 15 15 16 16 17 17 17 19 21 23 24 24 24 24 25 25 27
15 3 4 6 5 6 4 2 4 6 8 7 7 7 7 7 6 6 5 5 5 6 7 6 7 8 8 8 7 8 8 8 8 8 9 9 9 10 9 10 10 10 10 10 11 11 11 12 12 14 15 16 18 18 19 20 21 22 22 23 24 24 23 21 21 20 20 18 18 20 19 16 16 17 17 18 18 18 20 23 24 25 25 25 26 26 26 27
28 6 3 5 3 6 3 2 6 8 9 8 8 8 7 6 6 6 5 5 6 6 6 7 8 8 9 9 8 8 8 8 9 9 9 9 9 10 10 11 11 11 11 11 11 12 12 13 14 15 16 17 18 18 20 21 22 23 24 24 25 24 24 23 22 21 21 19 18 20 20 17 17 18 18 19 19 19 21 24 26 26 26 26 27 26 27 27
39 14 2 5 3 5 3 3 7 8 10 8 8 7 6 6 6 5 5 5 6 7 8 8 9 9 9 8 8 8 8 8 9 9 9 10 10 10 11 11 11 12 12 12 13 13 13 15 15 16 17 18 19 19 21 22 23 23 24 24 25 25 25 25 24 22 21 19 18 19 20 18 18 19 19 20 19 19 22 25 27 28 27 27 27 27 27 28
30 13 3 7 5 5 4 3 7 8 9 8 7 7 7 7 6 6 6 6 7 8 8 9 10 10 8 8 8 8 9 9 9 9 10 10 10 11 11 12 12 12 13 13 14 14 15 15 16 17 19 19 19 21 22 23 23 24 25 25 25 25 26 27 26 23 20 18 18 20 20 19 19 20 21 20 20 20 23 27 28 29 29 29 28 28 28 28
12 7 6 10 7 6 5 4 7 9 9 8 8 7 7 7 6 7 6 7 8 9 10 11 12 10 8 8 8 8 9 9 9 9 10 10 11 11 12 12 13 13 14 15 15 15 15 16 17 18 18 18 20 21 22 23 24 24 25 26 26 25 25 29 28 24 21 20 19 21 21 20 21 23 23 21 20 22 25 28 30 31 31 31 30 30 29 29
5 7 10 10 8 8 6 6 8 9 9 9 8 7 7 7 7 8 8 9 10 11 11 11 11 9 8 8 8 9 8 9 9 9 10 11 11 12 12 13 13 14 15 15 16 15 15 16 17 17 18 20 21 21 22 23 24 25 26 27 28 26 25 29 29 26 25 24 21 22 23 21 23 25 24 22 21 23 26 30 32 33 34 33 33 33 32 31
5 8 10 8 9 9 7 8 8 10 9 9 9 7 7 8 8 8 8 9 9 10 9 9 9 8 8 9 8 9 8 9 9 9 11 11 12 12 13 13 14 15 16 16 16 16 16 17 18 17 19 21 22 23 23 24 25 26 27 27 29 30 28 28 30 31 32 28 23 24 24 22 25 25 24 23 22 24 26 31 34 35 37 37 37 37 36 35
6 7 8 6 8 9 10 10 9 10 10 9 9 8 8 8 8 7 7 8 8 9 8 7 8 8 8 8 9 9 8 9 9 10 11 12 12 13 13 14 15 15 16 16 16 17 17 18 18 18 19 21 23 24 25 27 26 26 29 29 31 33 32 30 31 33 35 30 26 26 25 23 24 25 25 25 23 25 27 31 37 38 39 41 41 41 41 40
7 5 6 6 8 10 11 10 10 11 9 9 9 8 9 7 7 7 7 8 8 8 8 7 8 8 8 8 9 10 9 8 9 10 11 12 13 13 14 15 15 16 17 17 17 18 19 19 19 19 19 21 23 25 27 29 29 28 29 30 32 34 35 35 33 33 33 29 28 29 27 23 24 26 27 27 26 28 29 32 38 41 42 44 45 46 46 45
5 4 6 8 10 10 11 11 10 11 9 8 8 8 9 7 7 7 7 8 8 8 8 7 8 8 8 9 9 10 10 9 10 11 11 12 13 14 15 15 16 17 17 18 17 18 20 20 20 20 20 22 24 26 27 29 29 29 29 30 33 33 35 37 36 33 30 28 29 30 30 25 23 28 29 27 29 31 31 33 39 43 45 47 48 50 51 51
5 6 9 10 11 11 11 12 11 10 9 9 9 9 9 7 7 7 7 7 7 7 8 8 8 8 8 9 9 10 11 10 10 11 12 12 13 14 15 16 16 17 18 18 18 19 20 20 21 21 21 23 25 27 29 30 29 27 28 29 32 33 34 36 36 34 29 29 30 33 39 36 26 28 31 29 32 33 33 36 40 44 47 48 51 53 55 56
5 9 12 12 12 12 12 12 11 10 9 10 10 10 9 8 8 7 8 9 8 7 7 8 8 8 9 9 9 10 13 12 10 11 12 12 13 14 15 16 17 18 18 18 19 20 21 21 22 22 22 25 26 28 31 32 30 28 28 29 32 34 35 35 35 34 30 30 32 33 42 42 28 27 31 31 33 35 36 39 42 46 49 50 54 56 58 60
7 10 12 12 12 12 12 12 11 10 10 11 10 10 9 9 9 7 9 12 11 8 8 8 8 10 10 9 10 10 11 12 10 11 12 12 13 14 15 16 17 18 19 19 19 20 21 22 23 23 24 26 28 30 32 33 33 30 29 31 33 33 34 34 33 34 31 31 33 33 37 41 32 27 31 33 34 37 39 42 45 48 51 52 55 58 60 63
9 11 11 12 12 12 13 12 11 10 11 11 10 11 10 9 9 8 9 11 12 11 10 8 8 9 9 8 9 10 10 10 11 11 11 12 13 14 15 16 16 18 19 19 19 20 22 22 23 24 25 27 29 31 34 35 35 32 31 32 34 34 34 33 34 34 32 33 34 32 35 43 38 28 31 35 34 38 43 45 48 50 52 54 55 58 61 63
9 11 11 11 12 12 13 12 11 11 11 11 11 11 10 10 9 9 12 11 11 13 11 10 10 9 8 8 9 10 10 10 11 11 11 12 13 14 15 15 16 18 18 19 20 21 22 23 24 25 26 28 30 33 36 36 36 35 34 33 34 35 32 33 37 33 32 36 35 33 36 44 43 29 30 37 35 40 45 47 51 52 52 54 54 58 62 64
8 10 11 10 11 12 12 12 11 11 11 11 11 11 11 10 9 12 13 12 13 13 11 11 11 9 9 9 9 9 10 10 11 11 12 12 13 14 16 16 16 17 17 19 20 20 22 23 24 25 27 29 31 34 36 36 38 36 35 35 34 34 33 37 37 29 38 47 38 33 35 43 48 34 28 36 38 42 47 48 51 51 51 52 52 56 61 64
8 9 10 9 10 10 10 11 11 11 11 11 11 10 10 9 11 14 13 12 14 13 11 11 10 9 8 8 9 9 9 10 10 12 12 12 13 15 16 16 17 17 17 19 19 20 22 22 24 25 27 30 31 34 35 35 37 37 37 37 34 34 35 36 34 31 48 57 41 35 38 45 51 38 28 36 40 43 47 47 49 48 47 49 50 53 57 62
8 9 9 8 10 9 9 10 9 10 10 10 10 10 10 10 11 12 10 10 11 10 10 11 9 9 8 8 8 8 9 10 10 11 12 12 13 14 16 17 18 17 17 18 18 18 19 21 24 25 27 30 31 33 34 35 37 37 37 36 38 47 50 51 54 51 53 50 38 40 46 46 44 32 28 36 39 42 45 45 45 44 44 44 45 50 53 58
8 8 8 7 8 8 8 9 8 9 9 9 10 9 10 12 11 9 8 8 9 10 11 10 9 9 8 8 8 8 9 10 10 12 12 13 13 15 17 17 18 18 19 19 19 18 18 20 23 25 27 29 31 33 35 37 38 37 37 37 42 57 67 73 75 67 58 49 41 46 52 46 35 27 30 35 38 40 41 41 42 40 40 39 39 45 49 53
7 7 7 7 7 7 7 8 8 8 8 8 9 10 12 13 10 8 9 9 10 11 11 10 10 9 8 8 8 8 9 10 11 12 13 13 14 15 17 18 18 19 19 21 21 21 22 23 23 25 27 29 32 34 36 39 39 36 37 40 41 47 57 66 68 61 58 54 46 47 50 43 32 26 29 33 36 38 37 38 38 36 36 33 33 39 43 46
7 7 6 6 6 6 6 7 7 7 7 8 8 11 13 12 9 9 10 10 10 11 11 10 10 8 8 9 8 8 9 10 11 12 13 13 14 15 17 18 18 19 21 22 22 23 24 23 23 25 28 30 33 35 35 38 38 36 37 40 42 44 46 51 54 48 51 63 60 48 41 34 29 26 26 31 34 35 36 35 33 32 32 32 32 36 40 43
7 6 6 5 5 6 6 7 6 6 7 8 9 10 10 9 9 10 10 10 11 11 11 10 9 9 9 8 8 9 9 11 11 12 13 13 14 15 16 18 19 19 22 23 24 25 24 22 22 25 28 30 33 35 35 37 38 38 39 41 43 45 43 45 50 46 54 73 66 43 34 33 30 26 24 29 33 32 35 33 31 32 34 35 36 37 40 43
6 5 5 5 5 6 6 6 6 7 7 8 8 8 8 8 8 9 9 9 10 11 11 10 10 10 10 9 9 9 10 12 12 13 14 14 15 16 17 19 19 19 22 24 24 26 26 23 21 23 27 29 32 34 34 35 38 39 40 43 43 43 44 45 53 60 72 83 68 43 38 40 37 32 24 25 30 31 32 32 32 37 40 41 42 42 44 44
5 5 5 5 6 6 6 6 7 8 8 7 7 7 8 8 8 9 9 9 10 10 10 10 11 11 11 11 11 11 12 13 13 14 15 15 15 16 17 19 19 20 23 24 25 25 28 26 22 23 26 28 31 33 34 35 38 40 41 42 42 45 48 48 53 64 75 85 75 54 45 40 34 30 23 24 28 28 31 32 34 41 46 49 49 47 48 47
5 5 5 6 6 6 6 7 8 9 9 8 8 8 8 8 8 8 9 9 9 9 9 10 10 11 11 11 11 11 12 13 13 15 16 16 16 16 17 19 20 21 22 25 26 26 28 29 25 23 25 28 30 31 35 36 38 41 41 42 43 45 49 49 52 58 66 81 85 74 61 41 24 22 23 25 27 28 33 34 36 44 51 54 53 51 51 50
6 6 6 6 6 5 6 7 8 9 9 8 8 8 8 8 8 8 8 8 9 9 10 10 10 11 11 11 12 11 12 12 13 14 16 16 16 16 17 19 20 22 23 25 26 26 29 31 28 25 24 28 30 31 34 36 39 41 41 43 43 44 47 48 51 51 56 74 87 91 80 43 15 20 25 25 28 31 34 35 39 50 56 57 58 57 58 57
6 6 6 6 6 7 7 8 9 9 9 8 8 8 8 7 7 7 7 8 8 9 10 10 11 12 12 11 11 11 12 12 12 15 16 16 16 17 18 19 20 22 23 25 26 27 28 30 30 27 24 26 28 30 33 35 37 40 40 40 42 44 47 53 61 56 52 61 69 80 83 45 14 21 26 26 32 34 37 42 48 54 55 55 57 59 63 64
6 5 6 8 8 8 9 8 8 8 8 7 7 7 8 8 7 8 8 8 9 9 10 11 11 12 12 12 12 12 13 13 13 14 15 15 17 17 18 19 20 22 24 25 26 27 28 30 31 27 24 27 28 30 33 35 36 38 39 39 41 45 46 52 65 59 53 60 58 66 79 47 15 22 29 29 36 39 44 50 52 55 55 55 57 56 60 62
5 6 8 10 10 9 8 7 7 7 7 7 7 7 8 8 8 9 9 10 10 10 11 11 12 12 13 13 13 13 13 14 14 14 15 16 17 18 18 19 21 22 25 26 26 27 29 30 32 29 25 25 25 27 31 34 35 36 38 39 41 46 45 49 57 54 54 61 57 70 82 46 15 26 32 32 41 47 50 52 55 59 58 61 64 62 63 63
7 8 9 9 8 7 7 7 7 7 7 8 8 8 9 9 9 10 10 11 11 12 12 12 13 13 13 13 14 14 14 15 15 15 15 16 17 19 20 20 22 23 25 26 27 28 29 30 33 34 35 34 32 32 32 33 36 38 39 41 42 45 48 51 54 55 57 56 53 72 79 42 19 31 34 36 47 50 51 55 59 61 61 63 68 67 67 68
8 8 8 8 7 7 6 7 7 7 8 8 8 8 9 9 10 10 11 12 12 13 13 13 14 14 14 14 14 14 14 15 16 16 16 17 18 19 21 22 23 24 25 27 28 29 29 29 31 35 41 45 42 37 34 34 38 40 40 41 42 45 50 52 55 58 60 55 53 60 57 34 25 33 35 41 50 50 48 49 47 49 52 58 66 68 68 69
8 7 8 7 7 7 7 7 7 7 8 8 8 8 9 9 11 11 12 12 12 13 14 14 15 15 15 15 15 15 15 15 17 17 16 18 19 20 21 22 23 24 26 26 27 29 30 29 29 32 34 36 33 31 32 34 37 37 37 37 39 43 47 52 58 58 55 57 56 45 36 34 33 34 38 46 51 49 45 40 36 35 36 40 49 56 58 62
7 6 6 6 6 7 7 7 7 7 8 8 8 8 9 10 11 11 12 13 13 14 15 15 15 16 16 16 16 16 16 16 16 17 17 19 20 21 22 22 24 25 25 26 27 29 31 29 29 31 30 28 28 29 31 35 35 33 33 34 36 40 44 49 52 49 48 59 58 37 29 38 38 35 42 49 51 49 43 37 35 34 32 33 35 38 41 49
6 6 6 7 7 7 7 7 7 7 7 7 8 8 9 11 12 12 12 13 14 15 16 15 16 17 17 17 17 16 16 16 16 17 18 19 20 21 22 22 24 24 24 26 27 29 32 31 29 30 29 26 28 30 31 34 34 31 31 33 35 38 42 43 41 40 48 56 48 33 33 41 38 38 47 52 49 44 39 37 38 37 35 35 36 37 37 42
5 5 6 7 7 7 7 7 7 7 7 8 9 9 11 12 12 13 13 14 14 15 16 17 17 18 18 17 17 17 16 17 18 17 18 19 19 21 22 22 23 24 24 26 27 29 33 32 30 31 30 25 26 29 30 31 31 30 30 32 35 36 36 37 35 38 47 46 37 35 40 40 39 45 50 49 44 41 41 44 47 46 44 43 44 45 44 43
4 5 5 5 6 6 6 6 7 7 8 9 10 11 12 13 13 14 14 15 16 16 17 18 18 19 19 19 18 18 18 19 18 19 19 19 20 20 22 22 22 23 24 25 27 29 32 32 31 33 32 26 25 27 29 31 33 32 30 30 34 35 34 35 34 36 42 42 38 41 44 42 44 49 47 45 47 50 54 58 59 59 60 58 53 46 44 45
4 5 5 5 5 6 6 7 8 9 10 11 13 13 13 14 14 15 15 15 16 17 18 19 20 20 20 20 19 19 19 19 18 19 20 20 21 21 22 23 23 24 24 25 27 27 30 33 32 36 38 30 25 28 30 31 33 31 30 31 34 35 35 34 34 36 40 42 42 43 46 47 47 48 49 54 59 64 67 68 65 64 66 65 59 50 46 46
4 5 6 6 6 7 8 9 10 12 13 14 14 14 14 15 15 15 16 16 17 18 19 20 20 21 21 21 21 20 20 19 19 20 20 20 21 21 22 23 23 24 24 24 27 27 30 34 34 40 44 33 26 31 31 32 38 37 32 32 33 34 36 36 37 40 42 44 45 47 48 47 47 51 57 61 64 71 75 65 52 55 63 62 61 62 59 55
Wind_Speed
7 9 10 9 10 10 9 9 10 8 6 10 12 13 13 12 11 10 11 12 13 14 14 14 13 12 11 10 11 13 14 15 15 16 14 10 9 10 10 10 8 8 8 8 8 7 6 5 5 5 4 5 3 1 1 1 1 2 3 4 6 7 6 5 4 5 5 7 7 7 8 10 9 8 8 10 12 14 15 16 17 17 18 20 22 24 25 27
7 8 9 8 9 9 8 9 8 5 7 11 12 13 13 12 11 11 11 12 13 14 15 14 13 12 10 10 11 12 13 16 16 13 11 9 10 11 10 9 8 7 7 8 8 6 6 7 7 6 6 6 5 4 3 3 3 4 4 5 6 8 6 5 5 6 7 8 8 8 9 10 10 8 8 10 13 14 15 16 17 17 19 21 22 24 26 27
7 8 6 5 6 7 7 7 6 3 7 10 12 13 13 12 11 11 12 13 14 15 15 14 14 13 12 11 11 12 13 16 14 9 9 10 10 10 10 10 8 8 8 8 7 6 7 7 7 8 8 7 7 6 5 4 5 5 5 6 8 9 7 5 6 7 8 9 9 10 10 11 10 8 9 10 13 15 16 17 18 19 20 22 23 24 26 28
7 5 4 4 5 6 5 4 3 4 8 10 12 13 12 11 10 10 12 13 14 14 15 14 14 13 13 13 13 14 14 14 12 9 10 10 9 10 10 9 9 9 9 9 8 7 7 8 8 9 9 8 8 8 7 6 6 5 6 7 9 10 8 6 6 7 8 9 10 10 11 13 11 9 10 12 14 16 18 19 20 21 22 23 24 25 27 29
10 5 3 3 4 4 1 1 0 5 9 11 12 12 11 10 10 11 12 13 14 15 14 13 12 11 11 11 11 12 12 12 11 11 11 11 10 10 9 9 9 9 9 9 8 7 7 9 9 10 9 9 10 9 7 8 7 6 7 7 8 9 8 7 6 7 9 9 10 11 12 15 13 10 11 13 15 17 19 21 22 22 23 24 25 26 28 29
11 6 2 2 3 3 2 2 3 7 9 10 11 11 11 11 11 12 12 13 14 14 12 11 10 10 10 10 9 9 8 9 11 12 12 11 10 10 9 9 8 8 9 9 8 8 8 9 10 10 9 10 11 8 7 9 8 7 7 7 7 7 7 7 7 9 10 10 11 12 12 15 15 12 12 14 16 18 20 22 22 23 24 24 25 27 28 29
13 8 1 1 3 4 6 6 6 9 10 11 11 10 11 12 12 13 13 13 13 12 11 12 12 12 13 13 12 10 9 10 11 11 11 11 11 11 10 8 7 8 9 9 8 8 9 9 10 9 9 10 10 8 9 10 9 9 8 7 7 7 8 9 10 11 11 12 12 13 13 14 15 12 12 14 16 18 21 22 22 23 24 25 26 27 28 29
16 12 4 3 5 5 7 9 10 11 11 11 11 11 12 12 13 13 14 14 13 12 12 13 12 11 11 13 13 10 9 10 11 11 11 11 11 11 10 9 7 7 9 8 8 8 8 9 9 8 8 10 10 8 9 11 10 10 10 9 11 11 11 11 12 13 14 15 14 14 14 14 15 13 12 14 16 18 20 22 23 23 24 25 26 27 28 30
18 13 5 4 5 5 8 10 12 12 12 12 12 12 13 13 14 14 15 15 14 13 13 13 12 11 11 12 12 10 8 10 11 10 10 11 12 12 11 10 7 8 9 8 8 8 7 8 7 8 8 10 11 8 9 11 10 11 12 11 13 14 14 14 14 15 16 17 17 16 15 15 16 15 12 13 16 18 20 22 23 23 24 25 26 28 29 30
14 10 4 4 5 6 9 11 13 13 12 12 11 12 14 14 14 14 14 14 14 13 12 12 12 12 12 11 10 9 8 9 10 10 10 11 11 13 12 9 8 8 8 9 9 8 7 7 7 8 9 10 11 8 8 10 8 11 13 12 15 16 15 16 16 15 17 18 19 18 17 17 17 14 12 14 16 18 21 23 24 24 24 25 26 28 29 31
11 6 4 5 6 7 10 12 13 13 12 11 11 12 13 14 14 14 13 14 13 12 10 8 8 10 12 10 8 8 8 8 9 10 10 10 11 12 10 9 8 7 8 9 9 8 7 7 7 8 10 11 12 9 8 9 8 11 12 12 15 17 18 18 17 17 18 18 19 19 20 19 15 13 12 15 16 18 21 24 25 25 25 26 27 28 30 31
7 4 4 6 6 8 11 12 13 13 11 11 11 13 14 13 13 13 13 13 12 11 9 7 6 8 12 11 8 6 7 7 9 9 10 11 11 11 9 9 10 9 9 9 9 8 7 8 8 9 11 12 12 9 8 9 10 11 12 11 13 17 19 20 19 19 18 19 19 20 22 17 12 12 13 15 17 19 21 24 26 25 26 26 27 28 29 31
7 5 4 6 7 8 11 12 12 12 11 12 13 14 15 14 13 12 12 12 11 11 10 9 9 10 12 10 7 6 7 8 9 10 11 11 10 9 10 10 11 10 10 10 10 8 8 9 9 9 10 11 12 9 8 11 11 12 13 11 13 15 16 19 20 17 17 19 19 20 22 17 12 14 15 15 18 19 21 24 25 25 26 26 27 28 29 31
7 7 6 6 8 9 10 11 12 12 12 13 15 16 16 14 13 12 12 12 12 12 10 9 10 11 11 8 7 7 8 9 9 10 10 10 9 9 10 11 12 12 11 10 10 9 9 9 9 9 10 11 11 9 8 10 11 12 13 11 13 14 13 16 19 17 17 20 19 18 21 19 15 16 16 16 18 19 21 23 25 25 26 26 27 28 29 31
5 6 7 7 9 10 11 11 11 12 13 14 15 15 16 15 14 13 13 13 12 11 9 9 10 10 10 8 7 8 8 9 9 10 10 9 10 10 11 12 12 12 12 11 11 10 10 10 9 9 11 11 12 12 9 8 10 11 12 11 13 16 15 15 18 20 21 20 19 18 21 21 18 17 17 17 18 18 20 23 24 25 25 26 27 28 29 30
4 5 7 8 10 11 11 12 12 13 13 14 14 14 15 15 14 13 13 13 12 11 10 9 9 9 8 6 7 8 8 9 9 10 9 8 9 10 11 11 11 12 12 12 12 11 11 11 9 10 11 11 12 13 8 7 10 12 14 15 15 19 20 18 18 22 22 20 20 21 24 24 19 18 18 17 18 18 20 23 24 25 25 26 27 28 29 30
8 4 6 8 10 11 12 12 12 13 13 13 13 14 14 15 15 13 13 13 12 11 10 9 9 8 6 5 7 8 8 9 9 9 9 9 9 9 10 10 10 11 11 12 12 12 12 10 9 10 10 10 11 12 7 6 13 16 18 20 20 21 21 21 20 22 23 20 19 22 27 24 19 21 21 18 18 18 20 23 24 25 26 26 26 27 28 30
9 6 5 8 9 11 12 12 12 13 13 12 13 13 14 15 15 14 13 12 12 11 9 9 8 7 6 6 6 7 8 8 9 8 9 9 8 9 10 9 10 10 11 13 12 12 12 10 10 10 9 11 12 13 12 11 16 19 19 21 23 25 23 24 23 20 19 19 19 22 26 23 18 20 22 19 18 18 19 22 24 25 26 26 27 27 28 30
10 8 8 9 10 11 12 13 13 13 13 13 12 13 14 14 15 14 13 12 11 9 8 8 7 6 5 5 6 7 7 7 8 9 8 9 9 8 9 10 10 11 12 13 13 11 12 11 10 10 11 14 16 18 17 16 17 18 19 21 22 26 25 25 24 16 14 18 19 21 26 24 17 18 20 19 18 17 19 22 24 25 26 26 27 27 28 29
11 11 10 10 11 11 12 14 13 13 13 12 12 13 13 14 14 13 12 10 8 7 7 8 6 6 5 5 5 5 6 7 7 8 8 8 9 7 8 10 10 11 12 13 13 11 12 12 11 12 13 17 18 18 18 17 18 18 19 20 22 25 27 27 23 15 15 20 19 21 28 26 20 17 18 18 16 16 18 22 25 26 27 28 28 28 29 30
12 12 11 10 9 10 12 14 13 13 13 11 11 12 13 13 12 11 9 7 8 9 9 8 7 6 4 3 3 3 5 5 6 8 8 8 9 7 8 10 10 11 12 13 13 12 13 12 12 13 14 17 18 18 19 18 18 18 18 21 22 25 28 28 22 20 22 22 20 22 27 27 22 15 14 15 15 15 18 23 26 27 27 28 29 29 30 30
11 12 11 9 8 9 11 13 13 14 13 11 11 11 11 11 10 10 9 8 10 10 8 8 7 5 4 3 1 1 3 5 5 7 8 8 9 8 8 10 10 11 12 13 13 13 13 12 13 13 13 16 18 18 20 18 18 18 18 20 23 26 29 27 24 28 27 24 24 22 26 28 18 10 10 13 14 15 19 24 26 28 28 29 30 30 31 31
11 11 10 9 8 8 10 12 13 13 12 12 12 11 9 9 9 10 9 9 9 8 8 7 6 5 4 2 1 0 1 4 5 6 8 8 9 9 8 9 10 10 12 13 13 12 12 13 14 13 13 16 18 19 21 20 18 17 17 20 24 27 29 29 30 30 25 24 26 24 29 26 11 8 13 13 15 17 20 25 27 28 29 30 31 31 31 32
11 10 10 10 10 10 11 11 12 13 12 12 12 10 8 8 9 8 8 7 8 8 8 7 6 5 4 3 1 1 2 3 5 5 6 7 8 8 8 9 10 10 11 13 12 11 12 14 14 12 12 15 17 18 20 21 19 17 17 20 25 27 29 32 34 31 25 20 19 25 30 20 9 14 17 13 16 19 21 25 28 29 30 30 31 31 32 33
11 11 11 11 12 11 10 11 12 12 12 11 11 10 8 8 8 7 6 6 7 8 8 7 6 5 4 4 3 2 3 3 4 4 5 7 8 8 8 9 10 10 10 12 12 10 12 14 13 11 11 13 16 18 19 21 20 18 17 20 25 27 30 33 32 29 24 16 18 24 19 12 18 20 14 15 19 19 23 27 28 30 30 30 31 32 33 34
11 12 12 12 12 10 10 11 11 12 12 11 10 9 8 7 6 6 6 6 8 10 10 9 8 7 6 6 5 3 4 4 4 4 5 7 8 8 9 9 10 10 10 13 13 10 12 14 13 10 10 12 15 17 19 20 21 20 19 21 24 27 32 32 28 24 18 15 21 21 8 12 27 23 13 17 20 20 25 27 28 30 29 30 32 32 34 34
11 11 12 11 10 9 10 11 11 12 12 11 10 9 7 5 4 5 5 5 8 11 13 12 10 9 8 7 7 5 5 5 5 5 5 7 8 8 9 9 11 11 9 12 13 11 12 13 12 11 10 12 14 17 19 20 21 19 19 22 23 27 30 26 23 21 18 19 21 17 9 12 23 23 17 18 20 22 26 27 28 29 29 31 32 33 35 36
10 10 10 10 9 9 9 9 10 12 11 10 10 8 6 4 2 5 4 2 4 8 11 13 12 10 9 9 9 7 6 6 6 6 6 7 8 8 9 9 11 11 9 11 14 12 12 13 12 11 12 12 15 17 19 20 20 19 19 20 23 28 27 21 20 18 18 20 15 11 10 8 18 22 18 19 23 25 27 27 27 29 31 33 34 35 36 37
10 9 9 9 8 8 8 9 10 11 10 10 9 7 5 3 3 4 3 2 4 6 9 10 11 11 12 12 11 9 8 7 7 7 7 7 8 8 9 9 10 11 10 11 14 12 12 13 11 12 13 13 16 18 19 21 20 19 18 18 23 27 23 18 17 15 15 15 8 7 9 6 16 21 16 19 25 25 29 29 28 31 34 35 37 37 38 38
11 10 9 9 8 7 7 8 9 10 10 10 9 7 5 4 5 3 2 4 6 7 8 9 9 9 10 12 12 11 10 9 9 9 8 8 9 9 9 9 10 11 11 11 14 12 12 13 11 13 13 12 16 18 20 21 20 21 21 21 24 22 17 14 13 11 10 7 3 5 8 6 9 15 18 20 24 26 30 31 31 34 36 37 39 38 39 40
11 10 9 8 7 7 6 7 8 9 10 10 10 9 7 7 6 4 3 5 7 8 10 11 11 11 11 11 13 13 13 11 10 10 9 9 9 9 9 8 9 12 11 12 14 13 12 12 10 13 13 12 16 19 21 21 20 21 20 23 25 17 11 10 7 5 3 4 4 5 10 9 10 14 21 21 22 27 30 32 35 37 37 39 40 40 40 41
12 11 9 8 7 6 6 6 7 8 10 11 10 10 9 7 8 9 8 7 6 6 7 8 10 12 14 14 14 14 14 13 12 12 11 10 10 10 9 8 10 11 9 11 15 13 13 11 10 13 13 12 15 20 21 19 20 20 18 21 19 10 8 6 2 2 3 6 8 9 13 13 16 19 23 20 23 28 30 34 37 38 39 40 40 41 41 42
14 12 10 9 8 6 5 6 7 8 9 10 11 11 9 6 6 10 11 8 6 6 8 8 10 12 14 16 16 15 15 14 14 13 13 12 11 11 10 9 10 10 9 12 14 13 13 11 10 14 13 11 15 20 20 19 20 18 16 19 13 4 5 4 3 3 4 9 15 19 16 12 16 24 22 19 25 29 32 36 37 39 41 41 42 42 42 42
16 14 12 10 9 7 7 7 8 9 9 11 11 10 10 9 8 10 11 11 11 13 13 13 14 15 15 17 17 16 15 15 15 14 13 13 12 11 11 10 10 10 11 13 12 12 11 9 10 14 13 11 15 19 19 20 20 15 14 15 9 3 1 3 4 3 5 14 23 21 11 9 18 25 18 18 27 30 34 37 38 40 41 42 43 42 42 43
17 15 13 12 10 9 9 8 9 9 10 11 11 12 13 12 11 11 12 12 13 14 15 15 16 17 17 18 18 17 15 14 14 14 13 13 13 13 12 10 11 11 11 11 11 10 9 10 14 15 13 12 15 17 19 20 15 12 14 13 9 7 4 6 7 9 10 12 15 13 12 19 27 24 15 19 28 32 36 38 39 41 42 43 44 43 43 44
16 15 14 13 12 11 11 10 9 10 11 11 12 15 16 13 11 11 12 12 13 14 15 16 16 16 17 18 18 18 17 16 16 16 16 16 14 14 12 10 12 12 11 12 11 8 8 12 17 15 12 12 15 17 19 18 13 12 14 12 12 12 6 6 8 10 7 4 6 10 19 32 31 19 17 23 29 34 36 39 41 42 42 44 44 44 44 44
15 15 14 13 12 11 11 11 10 10 11 12 14 16 16 15 14 15 15 15 16 17 17 17 15 13 13 14 14 14 15 15 16 16 16 14 12 12 11 11 13 12 11 12 11 10 12 16 18 15 12 14 17 18 20 17 13 13 12 11 13 10 5 4 5 4 1 2 7 10 21 34 27 15 22 28 30 36 37 39 43 44 44 45 45 45 45 45
14 13 12 12 11 12 11 10 10 10 11 13 15 15 15 15 15 15 16 17 17 17 18 17 15 14 15 15 15 14 13 14 14 13 13 12 11 10 10 12 13 12 12 13 12 13 14 16 16 15 13 15 19 20 19 16 12 12 12 11 11 8 5 5 3 3 2 2 5 8 16 28 26 18 26 32 34 39 39 39 44 46 47 47 47 47 45 46
12 11 11 11 11 12 11 10 10 10 11 12 13 13 13 14 14 14 15 16 17 17 18 17 16 16 17 17 17 16 15 15 15 14 13 12 11 11 13 14 13 11 13 14 14 15 14 12 13 16 18 20 21 19 17 16 13 12 12 12 12 9 9 9 5 4 3 2 5 6 8 20 27 26 29 34 39 43 42 42 45 48 50 49 48 48 47 47
11 11 11 11 11 11 11 11 12 12 13 13 13 13 14 15 15 16 16 17 18 18 18 18 17 18 18 19 19 18 17 17 17 16 15 14 15 15 15 14 13 13 15 15 15 16 16 12 13 19 23 21 21 20 19 18 15 13 13 13 12 11 10 11 10 11 7 3 2 1 5 22 32 31 31 39 45 45 44 43 45 49 50 50 49 48 48 48
10 11 11 11 10 11 11 12 12 13 14 14 13 14 15 16 17 17 17 18 19 19 19 19 18 18 19 19 19 18 18 18 18 17 17 17 17 15 13 13 14 15 16 17 17 16 15 14 18 23 24 22 24 23 19 16 13 13 14 14 14 14 12 8 7 11 10 9 7 1 7 26 36 35 36 45 47 44 43 43 47 49 49 49 48 47 47 48
10 10 10 10 10 10 11 12 12 13 14 14 14 14 15 16 17 17 18 18 19 19 19 19 19 19 19 19 19 18 18 19 19 18 18 18 17 16 15 16 16 17 18 18 17 17 16 17 22 24 23 23 24 20 14 12 12 13 15 17 18 17 15 10 5 9 10 13 14 5 8 25 38 39 42 47 44 43 44 46 49 50 50 50 49 47 47 47
9 9 9 9 10 10 11 12 12 13 13 13 14 14 15 17 17 18 18 18 18 19 18 18 18 18 19 19 19 18 18 19 19 18 18 18 17 17 17 17 18 18 18 17 16 16 15 16 21 25 27 25 21 15 11 12 14 15 19 22 22 21 21 18 16 16 13 17 18 5 8 25 40 44 45 46 43 45 47 48 51 52 53 53 50 49 49 48
8 9 9 10 11 12 12 12 12 12 13 13 14 15 15 17 17 18 18 17 18 18 17 17 17 17 18 18 18 18 17 17 16 16 17 17 17 17 17 18 19 18 18 17 17 17 16 16 19 21 21 19 15 10 10 14 17 20 23 25 25 25 23 21 22 20 15 20 19 7 11 31 44 47 45 42 43 48 51 51 52 54 56 56 53 53 52 50
8 9 9 10 11 12 12 12 12 12 13 13 14 15 15 16 16 16 16 16 17 17 17 17 17 18 18 17 18 18 18 18 17 17 17 18 17 17 17 18 18 18 19 19 20 21 19 20 21 17 9 9 12 13 17 23 24 26 28 29 29 28 25 22 19 17 15 17 17 15 25 43 49 47 43 40 44 52 53 53 54 55 56 57 55 55 54 53
8 9 9 10 11 11 11 12 12 12 12 13 14 15 14 15 15 16 16 16 16 17 17 17 17 18 18 18 18 18 19 19 19 19 19 18 18 18 18 18 19 20 20 21 22 22 22 24 24 21 19 20 23 25 27 29 30 32 34 33 33 31 28 24 20 22 23 21 23 30 40 48 51 49 42 42 48 53 54 55 57 58 59 58 56 56 56 55
9 9 9 10 10 10 10 11 11 12 12 13 15 15 15 15 16 16 16 16 15 15 16 16 16 16 16 17 18 18 19 19 19 20 20 19 19 20 19 20 20 20 21 22 22 21 24 26 25 25 27 29 30 30 29 29 33 35 34 32 31 29 30 30 27 31 31 22 24 36 41 42 50 49 41 44 52 54 57 61 62 64 64 62 60 59 58 56
10 10 9 10 10 10 10 11 12 12 13 14 15 15 16 15 16 16 16 16 15 15 16 15 14 14 15 16 17 18 18 18 19 19 19 18 19 19 19 20 20 21 22 22 22 21 24 27 28 28 29 30 30 30 30 30 32 33 33 33 33 31 32 34 32 33 33 28 29 39 40 41 48 45 40 46 54 56 61 65 65 66 65 64 63 61 58 56
10 10 10 10 11 11 11 12 12 13 13 14 15 16 16 15 15 16 16 16 15 15 15 15 14 15 16 16 17 18 17 18 19 19 18 19 20 20 21 21 21 22 22 22 22 23 23 26 29 29 31 33 30 29 31 30 29 33 36 35 32 28 27 28 27 27 30 33 35 40 41 44 43 41 45 53 57 59 62 64 65 65 63 62 61 58 56 54
9 9 10 10 11 11 11 12 12 13 13 14 15 15 15 15 15 15 15 15 15 15 15 15 14 15 16 16 17 17 16 18 19 19 20 21 21 21 22 22 22 23 24 24 26 25 24 27 29 29 33 35 30 29 30 26 30 37 34 27 22 19 20 23 24 23 26 31 36 38 42 45 40 43 53 58 58 59 60 62 66 66 62 58 56 55 55 54
8 9 9 10 10 10 11 11 12 13 13 13 14 14 15 15 14 14 14 14 14 14 14 14 14 15 16 16 17 16 17 19 19 19 20 20 21 21 22 23 24 25 26 27 27 27 26 28 29 28 30 33 32 30 28 29 37 35 23 20 21 20 21 22 22 24 27 33 38 40 41 42 45 51 58 60 58 58 58 62 67 65 60 56 54 55 55 55
7 8 8 9 9 10 10 11 12 12 12 12 13 13 14 14 14 14 14 13 13 13 13 15 15 16 16 16 17 17 17 19 18 18 19 20 21 22 23 24 25 26 28 27 27 29 27 27 28 24 24 31 32 28 31 36 30 17 13 23 25 20 19 20 23 27 32 36 39 38 36 42 51 57 60 61 61 59 59 63 66 63 59 56 56 56 56 56
Wind_Direction
131 95 83 76 65 64 58 54 66 78 119 125 121 121 123 128 131 134 132 128 124 120 116 113 109 107 109 114 120 121 116 108 96 87 88 97 95 83 76 72 75 81 83 78 67 57 43 28 16 11 12 12 7 345 303 280 300 292 284 276 270 277 276 273 268 267 292 310 323 330 335 348 346 335 333 336 340 345 344 342 343 341 339 342 344 346 348 349
139 106 81 72 59 51 52 56 62 90 136 132 130 131 133 136 135 137 134 129 125 120 116 112 109 109 113 121 124 120 109 96 85 83 89 92 86 78 72 64 61 66 73 75 67 54 38 24 16 7 5 2 343 321 308 296 296 286 286 289 289 298 295 280 277 285 307 319 325 330 340 346 339 328 328 335 342 346 345 345 344 342 344 346 346 348 349 350
139 121 75 49 53 41 48 60 57 111 142 136 138 140 141 141 137 134 131 128 124 120 117 113 112 113 115 118 112 103 92 85 86 89 87 80 77 73 67 59 51 52 55 59 55 42 29 21 14 6 2 356 337 318 313 313 299 281 285 294 298 306 303 285 278 287 311 321 320 329 341 342 332 322 326 336 344 348 346 346 346 345 347 348 348 350 350 351
176 133 54 26 55 35 44 66 59 137 141 137 140 143 144 144 139 135 131 126 123 119 115 111 109 109 108 105 97 93 86 87 93 85 73 68 64 62 60 53 45 43 43 45 42 31 23 17 9 4 1 353 340 329 329 325 302 289 298 300 298 303 300 289 284 289 310 315 313 326 337 337 329 320 326 338 346 348 346 346 347 346 347 348 348 349 350 351
192 142 45 8 21 8 25 64 138 147 142 140 139 140 140 138 138 140 133 125 122 119 117 114 112 109 104 98 93 90 85 88 86 72 67 62 56 56 55 51 42 38 37 38 35 29 22 15 7 1 359 352 343 337 331 323 312 311 311 302 298 301 299 297 292 286 302 311 313 322 331 333 328 317 324 336 343 344 344 346 347 347 347 347 347 349 350 349
173 145 67 337 319 308 240 255 207 160 150 145 138 137 137 133 133 137 135 128 126 124 120 116 115 112 103 95 89 85 85 87 77 66 64 59 55 55 52 50 42 36 37 33 30 28 19 12 7 1 357 350 345 335 329 329 324 322 314 304 300 302 306 308 298 287 302 313 315 319 322 325 322 315 318 329 337 340 342 346 347 346 346 345 346 348 348 346
178 174 158 229 238 242 227 221 193 166 154 146 139 139 137 133 131 134 139 137 133 131 124 116 114 112 105 100 90 79 76 77 71 63 60 57 54 54 53 50 42 39 36 29 24 22 16 10 5 358 351 349 348 335 337 340 328 323 318 312 314 321 325 321 310 305 313 316 314 315 312 314 318 311 310 322 331 336 342 347 347 345 344 343 344 346 345 343
204 210 219 194 206 216 207 193 178 165 154 146 140 139 136 134 132 131 133 134 133 133 128 120 116 113 105 98 90 79 69 68 66 59 58 55 51 51 51 48 42 40 37 27 18 16 13 11 5 354 347 352 351 338 345 346 328 326 326 324 331 336 336 329 321 317 315 314 312 311 305 309 318 308 302 317 326 335 343 346 346 345 343 342 342 343 342 341
208 214 213 186 194 198 190 177 169 163 155 149 142 138 136 134 133 131 129 128 129 128 126 123 122 114 97 87 87 85 73 65 62 57 54 51 47 44 41 38 34 35 34 25 15 10 9 9 360 351 351 355 352 344 349 346 332 333 333 334 340 340 335 329 323 318 313 312 310 309 307 312 315 299 290 310 323 333 341 343 344 343 341 340 341 341 340 339
196 206 201 177 181 185 182 171 167 164 158 154 146 140 137 134 133 134 132 128 125 124 123 124 121 109 94 82 82 83 74 64 60 54 49 48 47 44 37 28 26 31 29 21 11 1 360 1 346 348 355 354 353 350 347 345 341 341 339 339 342 338 330 324 320 315 312 311 309 309 310 313 309 289 282 305 319 330 338 341 341 341 341 340 340 339 338 337
185 193 178 169 174 181 180 171 166 163 161 157 148 143 138 133 133 133 131 125 122 119 114 114 116 112 102 87 78 78 67 59 58 54 48 46 47 46 38 26 26 27 22 17 7 355 355 354 342 348 357 354 354 349 339 345 352 352 346 340 340 336 326 322 321 316 311 309 310 310 311 312 304 285 285 303 317 328 334 338 339 340 341 339 339 338 336 335
175 186 169 167 174 183 181 172 167 161 158 156 149 143 137 134 133 131 129 124 122 119 112 114 118 106 92 80 79 79 64 57 56 54 47 42 44 45 38 32 29 23 18 12 1 354 353 352 345 352 357 353 352 346 340 352 359 359 350 335 335 333 322 319 320 315 309 307 308 309 313 315 303 292 295 304 316 324 330 336 337 339 340 338 337 335 334 333
177 200 182 171 173 181 181 174 166 156 151 151 146 141 138 135 135 137 133 129 128 124 120 115 103 86 81 84 95 85 66 58 53 51 46 40 38 38 35 33 29 20 15 6 355 352 354 351 343 350 356 353 350 343 344 359 3 360 350 330 323 323 313 312 316 313 308 304 304 307 311 318 312 303 304 307 314 320 327 333 335 338 337 336 334 333 333 331
172 185 174 170 170 175 178 172 162 151 147 147 145 142 140 139 139 140 136 133 133 132 128 112 99 91 89 95 98 81 67 57 50 48 45 37 29 29 30 27 23 16 9 360 351 349 353 346 338 348 354 349 350 345 343 358 1 354 348 333 321 322 316 313 313 312 311 303 301 301 305 319 323 311 308 309 311 316 325 331 333 336 335 334 333 332 332 331
150 153 160 164 163 167 170 166 155 145 144 144 144 142 141 140 139 139 139 140 141 143 137 117 107 101 94 91 85 76 66 56 48 45 43 34 26 26 26 21 17 8 1 356 348 348 348 341 341 352 349 344 353 353 342 347 353 346 343 341 334 337 338 329 316 315 317 307 304 302 303 320 326 313 310 308 308 314 324 332 333 335 335 333 333 332 332 331
169 138 155 158 154 163 166 159 150 144 144 144 143 142 141 139 138 141 145 146 147 145 136 124 116 106 102 98 85 75 65 55 47 43 39 31 25 26 24 19 13 1 356 353 347 348 347 342 344 346 341 342 353 354 338 327 348 348 345 347 344 344 346 342 328 318 317 310 310 308 308 322 325 312 311 307 306 314 325 332 333 335 335 334 334 333 333 332
190 159 154 158 158 167 165 156 151 148 147 145 143 143 142 141 140 144 148 148 148 142 134 129 120 115 117 109 90 77 65 53 46 41 35 29 24 24 22 17 10 360 353 351 349 350 347 341 339 337 337 341 345 352 349 337 349 351 348 348 343 343 345 344 334 321 315 310 311 308 306 318 323 313 313 307 304 314 327 332 334 336 337 336 335 335 334 332
180 172 156 161 164 169 164 155 155 156 154 149 146 146 146 143 141 144 149 151 147 140 136 132 124 122 124 114 93 76 65 53 43 37 32 26 20 20 16 10 7 1 354 353 351 348 342 335 335 332 325 334 343 359 9 359 352 350 346 346 342 338 340 341 335 322 314 309 310 308 303 312 320 311 309 304 302 314 327 332 335 337 338 338 337 336 335 334
163 160 152 152 152 156 160 158 160 163 158 153 151 152 151 146 142 145 152 152 145 142 144 143 136 131 128 116 90 74 65 51 42 35 29 23 18 15 9 5 5 0 355 354 351 342 338 336 332 324 324 340 350 359 2 354 348 346 340 342 340 334 335 339 333 324 318 312 313 313 306 311 322 313 304 297 298 314 327 333 336 338 340 339 338 338 337 336
155 154 151 148 141 145 156 161 164 162 158 155 154 155 153 146 144 149 156 159 161 161 160 158 150 139 134 116 85 67 54 44 38 30 25 18 14 11 4 3 3 359 356 353 348 340 342 339 326 329 342 352 354 353 352 345 341 340 337 338 337 333 333 337 334 330 324 314 319 323 309 312 327 317 298 288 297 316 327 335 339 339 340 340 339 340 339 338
157 158 158 154 146 149 159 164 163 158 155 155 156 158 153 148 151 159 168 175 171 164 161 161 159 154 145 123 96 65 42 32 29 26 21 11 7 4 2 3 2 359 355 353 349 344 347 341 328 336 351 354 353 349 347 342 335 335 335 334 336 335 333 336 335 331 324 310 319 325 309 315 327 311 291 287 302 321 328 337 341 339 341 341 340 341 341 340
162 168 169 162 153 154 162 163 161 156 156 157 159 161 156 154 162 169 175 176 170 169 173 171 169 170 160 145 138 62 24 10 17 21 12 3 1 360 1 3 1 357 353 353 351 347 349 343 337 341 347 351 352 348 346 341 333 331 332 333 337 338 335 335 331 327 323 309 316 320 311 321 326 304 308 306 314 328 329 338 343 340 340 340 342 343 341 341
169 174 173 162 152 158 163 161 159 156 156 162 162 159 157 159 165 169 171 173 180 191 193 187 183 182 175 173 185 265 310 351 12 14 1 354 355 358 360 360 360 356 352 353 350 349 349 344 343 342 341 348 349 345 344 341 334 328 329 333 337 339 336 332 325 322 319 312 316 317 315 325 329 327 334 323 327 334 330 340 344 341 341 341 343 343 340 341
171 170 168 159 154 161 163 157 156 154 158 166 160 151 156 163 166 174 180 189 206 213 206 199 191 190 200 207 226 266 271 338 4 359 348 343 348 355 356 356 358 354 350 351 350 349 349 346 345 341 339 345 344 341 341 338 335 328 329 334 335 335 332 328 322 318 316 314 319 321 321 326 333 341 340 328 335 339 334 341 344 342 342 342 343 343 341 341
170 163 160 158 160 164 161 154 153 156 160 160 152 147 156 167 173 184 197 212 225 223 220 217 206 206 229 232 238 282 281 309 340 337 332 335 343 350 353 355 355 352 348 350 351 347 348 348 345 340 338 338 337 338 339 337 335 331 328 331 331 329 328 326 320 316 317 320 327 329 330 323 325 338 343 332 339 342 339 342 343 343 343 342 343 342 342 341
169 161 159 161 166 168 166 161 159 162 161 154 151 150 156 169 182 195 218 247 248 238 234 234 228 233 252 244 232 271 279 269 302 322 321 329 339 346 352 352 352 352 348 350 352 347 346 347 343 340 335 333 335 337 338 337 336 333 328 328 328 325 326 325 317 315 316 316 324 326 319 302 320 339 349 333 342 346 343 343 341 342 344 342 343 343 342 341
169 162 162 165 171 174 174 172 170 169 163 159 159 153 155 167 187 211 237 275 262 243 236 238 238 243 254 243 232 257 269 261 288 312 314 326 337 344 347 347 349 349 345 348 350 345 345 346 342 339 333 330 334 336 337 337 335 332 327 325 323 323 326 321 313 312 306 310 319 317 306 290 308 334 346 335 344 347 344 344 340 341 344 343 344 344 342 342
171 166 166 171 177 180 181 181 180 177 172 171 168 161 165 168 209 227 234 293 267 239 234 238 241 247 251 239 235 253 266 269 284 299 312 323 330 337 339 341 346 343 339 344 345 343 343 344 341 338 334 331 334 337 336 334 333 330 327 324 322 324 325 317 309 307 303 313 319 312 322 296 295 323 344 338 342 346 343 343 341 341 344 344 344 344 343 343
174 168 170 175 179 182 189 192 190 188 188 188 182 180 185 207 250 237 231 258 258 245 238 239 243 250 250 240 240 253 264 273 280 293 308 314 320 328 330 332 342 341 335 338 343 343 340 341 340 336 335 333 335 337 335 333 331 331 328 324 326 326 322 314 308 302 300 309 311 307 333 324 301 322 346 341 340 343 341 343 344 344 344 344 344 344 343 342
176 173 173 177 181 187 197 203 203 202 205 205 202 207 223 252 247 222 216 249 260 259 246 242 247 250 245 240 245 255 263 271 278 289 298 304 313 319 320 325 336 337 332 335 340 339 338 339 336 334 335 335 337 337 335 334 331 332 332 331 333 330 320 311 300 300 306 304 291 296 321 328 305 323 342 341 341 342 341 344 347 345 344 343 343 344 343 341
181 180 178 181 188 193 203 214 216 215 217 219 220 229 240 251 243 213 218 254 267 267 255 251 251 249 249 250 254 258 263 269 275 283 289 298 304 306 314 320 328 332 330 333 337 336 338 336 331 333 332 331 337 338 335 334 332 334 336 336 339 336 327 314 289 306 319 284 293 290 313 309 269 307 339 344 343 344 343 345 346 345 344 343 343 344 343 341
188 188 185 188 194 200 213 224 229 228 227 227 230 237 241 248 245 237 246 264 272 271 265 262 260 258 260 262 263 262 263 267 273 279 285 292 296 302 310 312 321 329 326 330 334 333 335 334 330 333 329 327 335 336 335 333 333 334 335 342 348 348 346 336 277 310 244 257 292 296 309 294 270 308 341 346 345 346 346 345 344 344 343 343 344 344 343 341
197 198 195 199 205 214 228 237 243 241 237 234 234 237 238 238 244 248 254 257 261 278 284 283 281 276 269 267 266 265 265 268 272 275 280 285 290 296 298 301 315 323 321 327 331 331 335 335 333 332 327 321 327 333 333 331 332 331 336 353 6 27 4 333 288 314 267 277 296 297 301 286 292 324 340 343 346 347 346 345 343 343 343 343 344 344 342 340
204 206 209 216 223 234 247 255 255 250 244 239 236 236 232 231 249 264 265 264 267 278 284 285 286 283 274 269 268 269 268 269 271 272 275 278 283 288 288 293 308 317 322 327 328 328 327 323 329 331 322 313 321 329 332 330 330 329 338 353 7 27 354 259 273 289 284 301 301 295 285 267 309 331 338 343 348 347 345 345 343 343 342 342 344 343 341 339
210 215 221 230 238 247 260 267 263 255 247 240 237 234 232 238 259 272 274 275 275 278 284 287 288 284 276 270 269 269 266 266 271 271 272 275 279 283 284 289 301 310 321 325 323 321 314 312 324 325 315 310 316 324 329 330 327 325 333 339 340 336 284 238 269 273 280 307 303 286 275 291 315 333 340 343 346 346 346 344 342 343 342 342 344 342 340 338
215 223 231 240 246 254 266 271 266 257 247 241 238 238 242 252 266 275 279 281 282 284 288 290 290 285 277 272 269 267 264 264 268 271 275 278 280 280 278 285 298 305 312 319 322 315 301 312 322 320 311 312 316 321 326 325 318 314 321 325 330 330 299 259 278 276 277 304 292 282 293 307 321 339 343 342 344 346 346 343 342 343 342 342 343 342 340 338
221 229 237 244 251 260 269 270 265 257 248 243 243 247 255 262 268 275 279 281 284 285 287 289 287 279 274 273 271 271 269 266 268 272 276 278 282 280 274 283 296 298 304 315 318 310 303 311 320 319 311 313 318 319 319 317 310 304 308 318 328 329 309 290 294 295 326 281 275 278 294 305 312 331 342 342 343 345 344 341 343 344 342 343 342 341 340 338
228 234 240 247 256 265 268 266 261 256 249 248 251 257 264 268 273 277 279 281 283 284 285 285 279 272 270 269 272 276 273 269 270 273 276 279 280 277 276 288 295 292 301 312 311 311 311 311 318 319 310 313 318 316 314 312 306 299 301 311 317 309 279 285 298 313 327 289 284 286 293 301 304 319 339 341 341 344 342 338 341 343 342 342 342 341 340 337
232 237 243 253 262 265 265 261 256 253 252 256 262 266 270 274 277 279 280 283 284 285 286 282 275 273 272 271 273 276 276 276 275 274 276 276 274 280 286 290 291 290 300 308 306 310 313 304 308 315 313 314 316 313 308 307 304 295 295 301 303 290 271 273 262 243 250 243 289 306 299 306 320 332 336 339 341 342 341 336 337 340 340 341 341 340 339 336
235 241 251 259 262 262 261 256 254 256 261 267 270 272 276 278 279 280 282 283 284 285 285 282 278 274 274 276 276 277 278 277 277 275 273 273 276 285 287 283 286 292 299 303 302 307 308 293 290 306 312 311 312 313 306 303 301 291 292 298 295 288 279 283 274 252 239 208 242 35 279 301 331 347 338 337 341 341 340 335 334 337 338 339 340 339 337 335
242 251 257 260 259 259 259 257 258 262 267 273 277 278 279 280 281 283 283 284 284 284 282 280 278 274 275 277 276 277 278 277 279 276 272 275 279 281 280 280 288 293 296 299 301 304 304 293 288 298 309 310 309 310 301 295 293 286 294 299 296 292 279 278 280 256 240 229 239 169 263 299 334 351 339 338 342 340 340 336 334 337 338 339 341 340 337 335
251 257 258 257 258 260 261 261 264 267 271 276 279 281 282 282 284 285 285 286 284 282 281 278 276 274 274 275 275 277 278 278 279 275 274 278 278 275 278 283 289 292 295 297 298 301 301 295 291 296 308 312 309 305 293 287 288 285 294 300 300 296 277 263 258 260 254 247 253 235 248 300 336 346 336 340 343 340 341 338 336 337 337 338 340 340 338 335
250 252 254 256 260 264 267 269 270 270 274 279 281 283 285 286 288 289 289 289 286 284 282 279 278 277 274 276 277 276 277 278 277 275 276 277 276 276 278 283 287 290 294 296 297 301 302 297 294 299 309 311 306 300 288 289 293 291 297 301 299 296 290 280 265 266 270 259 256 213 226 296 332 341 336 341 342 338 340 337 336 336 335 336 336 337 337 334
244 248 255 261 265 269 271 273 273 273 277 281 284 287 290 290 292 292 291 290 286 284 283 281 280 279 278 279 278 276 275 275 275 277 276 275 278 279 280 284 287 287 291 295 296 299 299 293 293 302 316 318 312 307 300 300 299 294 297 300 298 295 292 281 268 263 263 264 261 203 232 292 325 337 334 340 339 336 337 336 335 334 332 333 333 332 334 332
245 255 262 267 270 271 272 272 273 275 279 283 286 289 293 295 296 296 293 289 285 283 282 282 280 279 279 279 278 278 275 273 274 276 276 278 280 282 283 286 287 288 291 294 296 297 292 288 289 291 295 297 298 303 307 307 304 299 300 302 299 295 288 280 270 251 247 260 255 239 267 297 321 332 332 338 338 335 336 336 335 333 331 331 330 328 329 330
254 262 266 271 274 274 273 273 275 278 281 285 289 293 297 301 302 300 296 292 288 286 284 283 282 281 281 281 280 280 277 276 275 275 277 279 280 283 285 286 288 290 292 295 297 296 290 289 292 286 278 282 292 300 303 304 301 300 303 303 300 298 291 280 261 250 260 261 257 274 290 301 316 328 333 337 337 335 335 334 333 332 330 329 327 325 325 326
264 265 268 272 274 274 274 276 278 282 287 291 294 297 303 307 305 302 299 296 293 291 287 286 287 287 286 285 283 281 280 279 277 277 280 280 280 283 284 286 289 289 293 296 297 294 290 292 295 292 290 295 299 302 301 300 299 300 303 303 301 300 294 282 269 271 278 263 264 297 307 302 310 327 336 335 334 333 333 332 331 329 328 326 325 325 324 325
266 266 268 269 269 271 275 280 282 286 291 294 297 302 306 308 305 302 301 299 297 294 291 291 294 292 288 286 285 283 284 284 282 281 282 282 283 284 284 288 289 290 294 296 295 295 291 292 297 297 298 302 302 303 304 301 300 302 304 305 305 303 296 289 287 289 282 266 279 308 313 303 312 329 335 332 332 332 331 330 329 327 327 327 327 326 325 324
266 266 267 268 271 274 278 282 285 288 293 297 301 305 307 307 305 302 300 298 297 296 294 297 297 292 290 289 287 288 289 290 287 285 286 286 286 287 289 291 291 292 296 295 296 297 292 293 300 299 300 306 306 306 308 305 305 308 311 313 312 307 299 294 300 300 283 279 298 314 310 306 318 332 331 330 332 331 330 330 328 328 329 331 331 328 326 325
268 269 271 271 275 279 282 285 288 292 297 301 304 306 307 307 305 303 301 298 298 299 298 300 298 294 293 292 290 292 292 288 285 285 286 286 287 290 291 292 294 295 297 297 298 297 293 294 299 299 301 307 311 312 311 310 311 310 315 325 323 314 311 307 310 310 295 297 313 315 305 308 323 333 330 329 331 330 329 329 328 329 332 333 331 329 328 327
271 275 278 278 281 284 287 289 293 297 302 303 305 306 306 307 306 303 302 299 298 300 300 300 299 297 296 294 293 292 289 285 286 287 287 287 289 291 290 292 295 295 296 298 297 297 295 293 297 301 301 304 311 315 313 313 311 306 316 342 335 324 325 320 318 321 314 314 319 312 305 315 329 332 329 329 330 329 328 328 328 330 332 331 329 328 329 329
276 280 283 286 291 293 293 295 297 301 304 304 305 307 307 309 307 304 302 301 301 301 299 299 299 297 297 297 295 293 290 291 292 290 290 291 290 291 291 292 294 294 296 297 296 297 297 294 297 300 297 302 311 314 313 314 311 307 330 338 329 326 331 326 320 322 321 319 317 311 313 325 331 330 329 329 329 327 325 327 328 329 329 328 327 328 328 328